Time,TemperatureF,DewpointF,PressureIn,WindDirection,WindDirectionDegrees,WindSpeedMPH,WindSpeedGustMPH,Humidity,HourlyPrecipIn,Conditions,Clouds,dailyrainin,SoftwareType,DateUTC
2013-04-19 00:01:00,45.0,34.0,30.14,NW,323,0.0,3.0,65,0.00,,---,0.00,VWS V14.01,2013-04-19 05:01:00,
2013-04-19 00:06:00,44.7,34.0,30.14,NNW,341,0.0,5.0,66,0.00,,---,0.00,VWS V14.01,2013-04-19 05:06:00,
2013-04-19 00:11:00,44.6,34.0,30.14,NNW,340,0.0,0.0,66,0.00,,---,0.00,VWS V14.01,2013-04-19 05:11:00,
2013-04-19 00:16:00,44.4,34.1,30.14,NNW,347,0.0,0.0,67,0.00,,---,0.00,VWS V14.01,2013-04-19 05:16:00,
2013-04-19 00:21:00,44.1,33.9,30.14,NNW,346,0.0,0.0,67,0.00,,---,0.00,VWS V14.01,2013-04-19 05:21:00,
2013-04-19 00:26:00,43.9,34.0,30.14,NNW,346,0.0,0.0,68,0.00,,---,0.00,VWS V14.01,2013-04-19 05:26:00,
2013-04-19 00:31:00,43.6,34.1,30.14,NNW,346,0.0,0.0,69,0.00,,---,0.00,VWS V14.01,2013-04-19 05:31:00,
2013-04-19 00:36:00,43.4,33.9,30.14,NNW,343,0.0,8.0,69,0.00,,---,0.00,VWS V14.01,2013-04-19 05:36:00,
2013-04-19 00:42:00,43.2,33.7,30.14,NNW,343,2.0,3.0,69,0.00,,---,0.00,VWS V14.01,2013-04-19 05:42:00,
2013-04-19 00:47:00,43.2,33.7,30.14,NNW,344,0.0,3.0,69,0.00,,---,0.00,VWS V14.01,2013-04-19 05:47:00,
2013-04-19 00:52:00,43.1,33.6,30.14,NNW,342,1.0,3.0,69,0.00,,---,0.00,VWS V14.01,2013-04-19 05:52:00,
2013-04-19 00:57:00,43.1,34.0,30.14,NW,323,0.0,4.0,70,0.00,,---,0.00,VWS V14.01,2013-04-19 05:57:00,
2013-04-19 01:02:00,43.1,33.6,30.14,NNW,327,0.0,5.0,69,0.00,,---,0.00,VWS V14.01,2013-04-19 06:02:00,
2013-04-19 01:07:00,43.1,34.0,30.14,NNW,331,0.0,6.0,70,0.00,,---,0.00,VWS V14.01,2013-04-19 06:07:00,
2013-04-19 01:12:00,43.1,34.0,30.15,NNW,329,0.0,2.0,70,0.00,,---,0.00,VWS V14.01,2013-04-19 06:12:00,
2013-04-19 01:17:00,43.0,33.9,30.15,NNW,329,0.0,2.0,70,0.00,,---,0.00,VWS V14.01,2013-04-19 06:17:00,
2013-04-19 01:22:00,42.9,33.8,30.14,NNW,331,0.0,1.0,70,0.00,,---,0.00,VWS V14.01,2013-04-19 06:22:00,
2013-04-19 01:27:00,42.7,34.0,30.14,NW,307,0.0,2.0,71,0.00,,---,0.00,VWS V14.01,2013-04-19 06:27:00,
2013-04-19 01:32:00,42.6,33.5,30.14,NW,311,0.0,2.0,70,0.00,,---,0.00,VWS V14.01,2013-04-19 06:32:00,
2013-04-19 01:37:00,42.5,33.8,30.14,NW,311,0.0,0.0,71,0.00,,---,0.00,VWS V14.01,2013-04-19 06:37:00,
2013-04-19 01:42:00,42.3,33.6,30.14,NW,317,0.0,0.0,71,0.00,,---,0.00,VWS V14.01,2013-04-19 06:42:00,
2013-04-19 01:48:00,42.0,33.6,30.14,NW,317,0.0,0.0,72,0.00,,---,0.00,VWS V14.01,2013-04-19 06:48:00,
2013-04-19 01:53:00,41.6,33.6,30.14,NW,317,0.0,0.0,73,0.00,,---,0.00,VWS V14.01,2013-04-19 06:53:00,
2013-04-19 01:58:00,41.4,33.8,30.14,NW,317,0.0,2.0,74,0.00,,---,0.00,VWS V14.01,2013-04-19 06:58:00,
2013-04-19 02:03:00,41.2,33.5,30.14,NW,317,0.0,0.0,74,0.00,,---,0.00,VWS V14.01,2013-04-19 07:03:00,
2013-04-19 02:08:00,41.0,33.4,30.14,NW,317,0.0,0.0,74,0.00,,---,0.00,VWS V14.01,2013-04-19 07:08:00,
2013-04-19 02:13:00,40.7,33.4,30.13,NW,317,0.0,0.0,75,0.00,,---,0.00,VWS V14.01,2013-04-19 07:13:00,
2013-04-19 02:18:00,40.4,33.5,30.14,NW,317,0.0,0.0,76,0.00,,---,0.00,VWS V14.01,2013-04-19 07:18:00,
2013-04-19 02:23:00,40.3,33.3,30.13,NW,312,0.0,3.0,76,0.00,,---,0.00,VWS V14.01,2013-04-19 07:23:00,
2013-04-19 02:28:00,40.4,33.1,30.13,NNW,333,0.0,4.0,75,0.00,,---,0.00,VWS V14.01,2013-04-19 07:28:00,
2013-04-19 02:33:00,40.4,33.1,30.13,NW,316,4.0,4.0,75,0.00,,---,0.00,VWS V14.01,2013-04-19 07:33:00,
2013-04-19 02:38:00,40.6,33.0,30.13,WNW,299,0.0,4.0,74,0.00,,---,0.00,VWS V14.01,2013-04-19 07:38:00,
2013-04-19 02:43:00,40.9,33.3,30.13,NW,324,0.0,5.0,74,0.00,,---,0.00,VWS V14.01,2013-04-19 07:43:00,
2013-04-19 02:48:00,41.0,33.0,30.13,NNW,333,0.0,5.0,73,0.00,,---,0.00,VWS V14.01,2013-04-19 07:48:00,
2013-04-19 02:53:00,41.0,33.0,30.13,NNW,329,0.0,4.0,73,0.00,,---,0.00,VWS V14.01,2013-04-19 07:53:00,
2013-04-19 02:59:00,41.0,33.0,30.13,NW,324,0.0,2.0,73,0.00,,---,0.00,VWS V14.01,2013-04-19 07:59:00,
2013-04-19 03:04:00,41.1,33.1,30.13,NW,323,0.0,2.0,73,0.00,,---,0.00,VWS V14.01,2013-04-19 08:04:00,
2013-04-19 03:09:00,41.0,33.4,30.13,NW,323,0.0,0.0,74,0.00,,---,0.00,VWS V14.01,2013-04-19 08:09:00,
2013-04-19 03:14:00,40.8,33.2,30.14,NW,323,0.0,0.0,74,0.00,,---,0.00,VWS V14.01,2013-04-19 08:14:00,
2013-04-19 03:19:00,40.6,33.0,30.14,NW,323,0.0,1.0,74,0.00,,---,0.00,VWS V14.01,2013-04-19 08:19:00,
2013-04-19 03:24:00,40.5,32.9,30.14,NW,322,0.0,0.0,74,0.00,,---,0.00,VWS V14.01,2013-04-19 08:24:00,
2013-04-19 03:29:00,40.4,33.1,30.15,NW,305,0.0,3.0,75,0.00,,---,0.00,VWS V14.01,2013-04-19 08:29:00,
2013-04-19 03:34:00,40.4,32.8,30.15,NW,306,0.0,1.0,74,0.00,,---,0.00,VWS V14.01,2013-04-19 08:34:00,
2013-04-19 03:39:00,40.3,32.7,30.15,WNW,300,0.0,1.0,74,0.00,,---,0.00,VWS V14.01,2013-04-19 08:39:00,
2013-04-19 03:44:00,40.3,32.7,30.15,WNW,300,0.0,0.0,74,0.00,,---,0.00,VWS V14.01,2013-04-19 08:44:00,
2013-04-19 03:49:00,40.2,32.9,30.15,WNW,301,0.0,1.0,75,0.00,,---,0.00,VWS V14.01,2013-04-19 08:49:00,
2013-04-19 03:54:00,40.2,32.6,30.15,WNW,300,0.0,0.0,74,0.00,,---,0.00,VWS V14.01,2013-04-19 08:54:00,
2013-04-19 03:59:00,40.1,32.5,30.15,WNW,300,0.0,0.0,74,0.00,,---,0.00,VWS V14.01,2013-04-19 08:59:00,
2013-04-19 04:05:00,39.8,32.5,30.16,WNW,301,0.0,0.0,75,0.00,,---,0.00,VWS V14.01,2013-04-19 09:05:00,
2013-04-19 04:10:00,39.5,32.6,30.16,WNW,301,0.0,0.0,76,0.00,,---,0.00,VWS V14.01,2013-04-19 09:10:00,
2013-04-19 04:15:00,39.3,32.7,30.16,WNW,301,1.0,1.0,77,0.00,,---,0.00,VWS V14.01,2013-04-19 09:15:00,
2013-04-19 04:20:00,39.1,32.2,30.16,WNW,301,0.0,0.0,76,0.00,,---,0.00,VWS V14.01,2013-04-19 09:20:00,
2013-04-19 04:25:00,39.0,32.4,30.16,WNW,301,0.0,0.0,77,0.00,,---,0.00,VWS V14.01,2013-04-19 09:25:00,
2013-04-19 04:30:00,38.8,32.2,30.16,WNW,301,0.0,0.0,77,0.00,,---,0.00,VWS V14.01,2013-04-19 09:30:00,
2013-04-19 04:35:00,38.6,32.3,30.17,WNW,302,0.0,0.0,78,0.00,,---,0.00,VWS V14.01,2013-04-19 09:35:00,
2013-04-19 04:40:00,38.4,32.2,30.17,WNW,302,0.0,0.0,78,0.00,,---,0.00,VWS V14.01,2013-04-19 09:40:00,
2013-04-19 04:45:00,38.4,32.5,30.17,WNW,302,0.0,0.0,79,0.00,,---,0.00,VWS V14.01,2013-04-19 09:45:00,
2013-04-19 04:50:00,38.6,32.0,30.17,WNW,302,0.0,0.0,77,0.00,,---,0.00,VWS V14.01,2013-04-19 09:50:00,
2013-04-19 04:55:00,38.4,32.2,30.18,WNW,302,0.0,0.0,78,0.00,,---,0.00,VWS V14.01,2013-04-19 09:55:00,
2013-04-19 05:00:00,38.4,32.2,30.18,WNW,302,0.0,0.0,78,0.00,,---,0.00,VWS V14.01,2013-04-19 10:00:00,
2013-04-19 05:05:00,38.6,32.0,30.18,WNW,302,0.0,0.0,77,0.00,,---,0.00,VWS V14.01,2013-04-19 10:05:00,
2013-04-19 05:10:00,38.6,32.0,30.18,WNW,300,0.0,0.0,77,0.00,,---,0.00,VWS V14.01,2013-04-19 10:10:00,
2013-04-19 05:16:00,38.4,32.2,30.18,WNW,300,0.0,0.0,78,0.00,,---,0.00,VWS V14.01,2013-04-19 10:16:00,
2013-04-19 05:21:00,38.1,32.2,30.19,WNW,300,0.0,0.0,79,0.00,,---,0.00,VWS V14.01,2013-04-19 10:21:00,
2013-04-19 05:26:00,37.9,31.7,30.19,WNW,299,0.0,0.0,78,0.00,,---,0.00,VWS V14.01,2013-04-19 10:26:00,
2013-04-19 05:31:00,37.9,31.4,30.20,WNW,299,0.0,0.0,77,0.00,,---,0.00,VWS V14.01,2013-04-19 10:31:00,
2013-04-19 05:36:00,37.9,31.0,30.20,WNW,299,0.0,1.0,76,0.00,,---,0.00,VWS V14.01,2013-04-19 10:36:00,
2013-04-19 05:41:00,38.1,30.9,30.20,WNW,299,0.0,0.0,75,0.00,,---,0.00,VWS V14.01,2013-04-19 10:41:00,
2013-04-19 05:46:00,38.2,31.0,30.20,WNW,299,0.0,1.0,75,0.00,,---,0.00,VWS V14.01,2013-04-19 10:46:00,
2013-04-19 05:51:00,38.3,31.1,30.20,WNW,299,0.0,0.0,75,0.00,,---,0.00,VWS V14.01,2013-04-19 10:51:00,
2013-04-19 05:56:00,38.1,31.5,30.20,WNW,299,0.0,0.0,77,0.00,,---,0.00,VWS V14.01,2013-04-19 10:56:00,
2013-04-19 06:01:00,37.7,31.8,30.21,WNW,299,0.0,0.0,79,0.00,,---,0.00,VWS V14.01,2013-04-19 11:01:00,
2013-04-19 06:06:00,37.5,31.0,30.21,WNW,299,0.0,0.0,77,0.00,,---,0.00,VWS V14.01,2013-04-19 11:06:00,
2013-04-19 06:11:00,37.9,30.7,30.21,WNW,297,0.0,1.0,75,0.00,,---,0.00,VWS V14.01,2013-04-19 11:11:00,
2013-04-19 06:16:00,38.2,30.7,30.22,WNW,298,0.0,0.0,74,0.00,,---,0.00,VWS V14.01,2013-04-19 11:16:00,
2013-04-19 06:22:00,38.5,30.6,30.22,NW,306,0.0,4.0,73,0.00,,---,0.00,VWS V14.01,2013-04-19 11:22:00,
2013-04-19 06:27:00,38.6,30.7,30.22,WNW,296,0.0,1.0,73,0.00,,---,0.00,VWS V14.01,2013-04-19 11:27:00,
2013-04-19 06:32:00,38.7,30.8,30.22,WNW,302,0.0,0.0,73,0.00,,---,0.00,VWS V14.01,2013-04-19 11:32:00,
2013-04-19 06:37:00,38.9,30.7,30.22,WNW,302,0.0,0.0,72,0.00,,---,0.00,VWS V14.01,2013-04-19 11:37:00,
2013-04-19 06:42:00,38.9,31.0,30.22,WNW,302,0.0,0.0,73,0.00,,---,0.00,VWS V14.01,2013-04-19 11:42:00,
2013-04-19 06:47:00,38.7,31.1,30.23,WNW,302,0.0,0.0,74,0.00,,---,0.00,VWS V14.01,2013-04-19 11:47:00,
2013-04-19 06:52:00,38.7,31.1,30.23,WNW,302,0.0,0.0,74,0.00,,---,0.00,VWS V14.01,2013-04-19 11:52:00,
2013-04-19 06:57:00,38.8,31.2,30.23,WNW,301,0.0,0.0,74,0.00,,---,0.00,VWS V14.01,2013-04-19 11:57:00,
2013-04-19 07:02:00,39.0,31.4,30.23,WNW,301,0.0,0.0,74,0.00,,---,0.00,VWS V14.01,2013-04-19 12:02:00,
2013-04-19 07:07:00,39.2,32.0,30.23,WNW,300,0.0,2.0,75,0.00,,---,0.00,VWS V14.01,2013-04-19 12:07:00,
2013-04-19 07:12:00,39.5,32.2,30.23,WNW,300,0.0,3.0,75,0.00,,---,0.00,VWS V14.01,2013-04-19 12:12:00,
2013-04-19 07:17:00,39.9,32.6,30.23,WNW,293,0.0,3.0,75,0.00,,---,0.00,VWS V14.01,2013-04-19 12:17:00,
2013-04-19 07:22:00,40.4,32.8,30.24,West,265,6.0,6.0,74,0.00,,---,0.00,VWS V14.01,2013-04-19 12:22:00,
2013-04-19 07:28:00,41.0,33.4,30.24,West,279,0.0,3.0,74,0.00,,---,0.00,VWS V14.01,2013-04-19 12:28:00,
2013-04-19 07:33:00,41.6,33.6,30.24,WNW,285,0.0,6.0,73,0.00,,---,0.00,VWS V14.01,2013-04-19 12:33:00,
2013-04-19 07:38:00,42.2,33.8,30.24,West,269,2.0,4.0,72,0.00,,---,0.00,VWS V14.01,2013-04-19 12:38:00,
2013-04-19 07:43:00,42.7,34.0,30.24,WNW,302,2.0,4.0,71,0.00,,---,0.00,VWS V14.01,2013-04-19 12:43:00,
2013-04-19 07:48:00,43.3,34.2,30.24,West,277,2.0,5.0,70,0.00,,---,0.00,VWS V14.01,2013-04-19 12:48:00,
2013-04-19 07:53:00,43.8,33.9,30.24,West,265,1.0,7.0,68,0.00,,---,0.00,VWS V14.01,2013-04-19 12:53:00,
2013-04-19 07:58:00,44.4,34.1,30.25,WNW,294,1.0,4.0,67,0.00,,---,0.00,VWS V14.01,2013-04-19 12:58:00,
2013-04-19 08:03:00,44.9,33.9,30.24,WNW,289,5.0,5.0,65,0.00,,---,0.00,VWS V14.01,2013-04-19 13:03:00,
2013-04-19 08:08:00,45.2,33.4,30.25,WSW,251,3.0,8.0,63,0.00,,---,0.00,VWS V14.01,2013-04-19 13:08:00,
2013-04-19 08:13:00,45.4,34.0,30.25,West,281,0.0,6.0,64,0.00,,---,0.00,VWS V14.01,2013-04-19 13:13:00,
2013-04-19 08:18:00,45.7,33.8,30.25,NNW,332,2.0,5.0,63,0.00,,---,0.00,VWS V14.01,2013-04-19 13:18:00,
2013-04-19 08:23:00,46.0,33.7,30.24,NW,312,6.0,8.0,62,0.00,,---,0.00,VWS V14.01,2013-04-19 13:23:00,
2013-04-19 08:28:00,46.1,33.0,30.24,WNW,290,4.0,11.0,60,0.00,,---,0.00,VWS V14.01,2013-04-19 13:28:00,
2013-04-19 08:33:00,46.4,32.9,30.24,West,277,2.0,11.0,59,0.00,,---,0.00,VWS V14.01,2013-04-19 13:33:00,
2013-04-19 08:39:00,46.7,32.7,30.25,WNW,295,1.0,10.0,58,0.00,,---,0.00,VWS V14.01,2013-04-19 13:39:00,
2013-04-19 08:44:00,47.0,32.6,30.25,West,277,7.0,9.0,57,0.00,,---,0.00,VWS V14.01,2013-04-19 13:44:00,
2013-04-19 08:49:00,47.4,31.6,30.25,WNW,285,7.0,13.0,54,0.00,,---,0.00,VWS V14.01,2013-04-19 13:49:00,
2013-04-19 08:54:00,47.7,31.4,30.25,NNW,342,10.0,11.0,53,0.00,,---,0.00,VWS V14.01,2013-04-19 13:54:00,
2013-04-19 08:59:00,47.7,30.5,30.25,North,351,3.0,12.0,51,0.00,,---,0.00,VWS V14.01,2013-04-19 13:59:00,
2013-04-19 09:04:00,48.0,31.2,30.26,NW,311,5.0,16.0,52,0.00,,---,0.00,VWS V14.01,2013-04-19 14:04:00,
2013-04-19 09:09:00,47.9,29.2,30.25,NW,305,6.0,11.0,48,0.00,,---,0.00,VWS V14.01,2013-04-19 14:09:00,
2013-04-19 09:14:00,48.0,30.8,30.25,North,355,0.0,14.0,51,0.00,,---,0.00,VWS V14.01,2013-04-19 14:14:00,
2013-04-19 09:19:00,48.5,30.2,30.26,NNE,24,3.0,10.0,49,0.00,,---,0.00,VWS V14.01,2013-04-19 14:19:00,
2013-04-19 09:24:00,48.5,30.2,30.26,NNW,328,5.0,15.0,49,0.00,,---,0.00,VWS V14.01,2013-04-19 14:24:00,
2013-04-19 09:29:00,48.5,30.7,30.26,NW,326,4.0,10.0,50,0.00,,---,0.00,VWS V14.01,2013-04-19 14:29:00,
2013-04-19 09:35:00,48.6,29.8,30.26,NNW,342,6.0,12.0,48,0.00,,---,0.00,VWS V14.01,2013-04-19 14:35:00,
2013-04-19 09:40:00,48.7,29.4,30.26,WNW,303,5.0,13.0,47,0.00,,---,0.00,VWS V14.01,2013-04-19 14:40:00,
2013-04-19 09:45:00,48.8,28.4,30.26,NNW,331,7.0,15.0,45,0.00,,---,0.00,VWS V14.01,2013-04-19 14:45:00,
2013-04-19 09:50:00,49.0,29.1,30.26,WNW,297,8.0,10.0,46,0.00,,---,0.00,VWS V14.01,2013-04-19 14:50:00,
2013-04-19 09:55:00,49.2,29.9,30.26,NW,306,15.0,16.0,47,0.00,,---,0.00,VWS V14.01,2013-04-19 14:55:00,
2013-04-19 10:00:00,49.1,28.7,30.26,North,355,3.0,14.0,45,0.00,,---,0.00,VWS V14.01,2013-04-19 15:00:00,
2013-04-19 10:05:00,49.0,28.0,30.26,NNW,336,9.0,16.0,44,0.00,,---,0.00,VWS V14.01,2013-04-19 15:05:00,
2013-04-19 10:10:00,49.5,29.6,30.27,NW,319,1.0,10.0,46,0.00,,---,0.00,VWS V14.01,2013-04-19 15:10:00,
2013-04-19 10:15:00,50.0,29.0,30.27,NNE,22,7.0,12.0,44,0.00,,---,0.00,VWS V14.01,2013-04-19 15:15:00,
2013-04-19 10:20:00,50.0,27.2,30.27,NNW,328,9.0,11.0,41,0.00,,---,0.00,VWS V14.01,2013-04-19 15:20:00,
2013-04-19 10:25:00,50.1,26.7,30.27,NW,313,10.0,14.0,40,0.00,,---,0.00,VWS V14.01,2013-04-19 15:25:00,
2013-04-19 10:30:00,50.1,26.7,30.27,NW,309,8.0,16.0,40,0.00,,---,0.00,VWS V14.01,2013-04-19 15:30:00,
2013-04-19 10:35:00,50.0,27.8,30.27,NNW,338,5.0,15.0,42,0.00,,---,0.00,VWS V14.01,2013-04-19 15:35:00,
2013-04-19 10:41:00,50.6,27.8,30.27,NE,54,1.0,17.0,41,0.00,,---,0.00,VWS V14.01,2013-04-19 15:41:00,
2013-04-19 10:46:00,50.4,28.2,30.28,NNW,331,14.0,14.0,42,0.00,,---,0.00,VWS V14.01,2013-04-19 15:46:00,
2013-04-19 10:51:00,50.5,30.0,30.28,NNE,18,8.0,15.0,45,0.00,,---,0.00,VWS V14.01,2013-04-19 15:51:00,
2013-04-19 10:56:00,50.5,30.5,30.28,NNW,334,3.0,9.0,46,0.00,,---,0.00,VWS V14.01,2013-04-19 15:56:00,
2013-04-19 11:01:00,50.9,28.6,30.28,North,355,7.0,12.0,42,0.00,,---,0.00,VWS V14.01,2013-04-19 16:01:00,
2013-04-19 11:06:00,51.0,28.7,30.28,NNW,346,3.0,13.0,42,0.00,,---,0.00,VWS V14.01,2013-04-19 16:06:00,
2013-04-19 11:11:00,51.6,31.0,30.28,WNW,298,7.0,9.0,45,0.00,,---,0.00,VWS V14.01,2013-04-19 16:11:00,
2013-04-19 11:16:00,52.3,28.7,30.28,WNW,296,12.0,17.0,40,0.00,,---,0.00,VWS V14.01,2013-04-19 16:16:00,
2013-04-19 11:21:00,51.9,30.1,30.28,WNW,298,7.0,14.0,43,0.00,,---,0.00,VWS V14.01,2013-04-19 16:21:00,
2013-04-19 11:26:00,52.0,29.0,30.28,NNW,332,4.0,13.0,41,0.00,,---,0.00,VWS V14.01,2013-04-19 16:26:00,
2013-04-19 11:31:00,52.3,30.5,30.28,West,281,5.0,13.0,43,0.00,,---,0.00,VWS V14.01,2013-04-19 16:31:00,
2013-04-19 11:36:00,52.8,30.4,30.28,NW,321,3.0,8.0,42,0.00,,---,0.00,VWS V14.01,2013-04-19 16:36:00,
2013-04-19 11:41:00,53.2,30.1,30.27,NW,325,10.0,14.0,41,0.00,,---,0.00,VWS V14.01,2013-04-19 16:41:00,
2013-04-19 11:47:00,53.1,28.8,30.27,NNW,340,9.0,12.0,39,0.00,,---,0.00,VWS V14.01,2013-04-19 16:47:00,
2013-04-19 11:52:00,53.2,29.5,30.27,WSW,257,8.0,14.0,40,0.00,,---,0.00,VWS V14.01,2013-04-19 16:52:00,
2013-04-19 11:57:00,53.7,31.8,30.27,NNW,327,4.0,11.0,43,0.00,,---,0.00,VWS V14.01,2013-04-19 16:57:00,
2013-04-19 12:02:00,54.0,29.6,30.27,NNW,329,5.0,10.0,39,0.00,,---,0.00,VWS V14.01,2013-04-19 17:02:00,
2013-04-19 12:07:00,54.4,30.6,30.27,NW,317,6.0,7.0,40,0.00,,---,0.00,VWS V14.01,2013-04-19 17:07:00,
2013-04-19 12:12:00,54.0,31.5,30.27,NNW,338,1.0,8.0,42,0.00,,---,0.00,VWS V14.01,2013-04-19 17:12:00,
2013-04-19 12:17:00,54.4,29.3,30.26,WSW,254,6.0,14.0,38,0.00,,---,0.00,VWS V14.01,2013-04-19 17:17:00,
2013-04-19 12:22:00,55.0,28.6,30.26,West,271,8.0,11.0,36,0.00,,---,0.00,VWS V14.01,2013-04-19 17:22:00,
2013-04-19 12:27:00,55.1,28.6,30.26,NW,304,6.0,15.0,36,0.00,,---,0.00,VWS V14.01,2013-04-19 17:27:00,
2013-04-19 12:32:00,55.6,29.1,30.26,NW,309,6.0,14.0,36,0.00,,---,0.00,VWS V14.01,2013-04-19 17:32:00,
2013-04-19 12:37:00,55.6,28.4,30.26,WNW,292,5.0,14.0,35,0.00,,---,0.00,VWS V14.01,2013-04-19 17:37:00,
2013-04-19 12:42:00,55.2,28.0,30.26,NNW,333,4.0,13.0,35,0.00,,---,0.00,VWS V14.01,2013-04-19 17:42:00,
2013-04-19 12:47:00,55.5,29.0,30.25,West,273,1.0,18.0,36,0.00,,---,0.00,VWS V14.01,2013-04-19 17:47:00,
2013-04-19 12:53:00,55.9,30.0,30.25,NW,312,10.0,11.0,37,0.00,,---,0.00,VWS V14.01,2013-04-19 17:53:00,
2013-04-19 12:58:00,56.2,29.6,30.25,WNW,286,0.0,15.0,36,0.00,,---,0.00,VWS V14.01,2013-04-19 17:58:00,
2013-04-19 13:03:00,56.7,28.7,30.25,WNW,292,8.0,13.0,34,0.00,,---,0.00,VWS V14.01,2013-04-19 18:03:00,
2013-04-19 13:08:00,56.7,29.4,30.25,NW,313,16.0,16.0,35,0.00,,---,0.00,VWS V14.01,2013-04-19 18:08:00,
2013-04-19 13:13:00,56.7,27.9,30.24,NW,325,3.0,16.0,33,0.00,,---,0.00,VWS V14.01,2013-04-19 18:13:00,
2013-04-19 13:18:00,57.0,29.6,30.24,NW,319,12.0,14.0,35,0.00,,---,0.00,VWS V14.01,2013-04-19 18:18:00,
2013-04-19 13:23:00,57.2,28.4,30.24,NNW,327,6.0,13.0,33,0.00,,---,0.00,VWS V14.01,2013-04-19 18:23:00,
2013-04-19 13:28:00,57.5,29.4,30.24,NW,313,13.0,13.0,34,0.00,,---,0.00,VWS V14.01,2013-04-19 18:28:00,
2013-04-19 13:33:00,58.0,29.1,30.23,North,355,4.0,12.0,33,0.00,,---,0.00,VWS V14.01,2013-04-19 18:33:00,
2013-04-19 13:38:00,57.9,27.5,30.23,NNW,337,7.0,8.0,31,0.00,,---,0.00,VWS V14.01,2013-04-19 18:38:00,
2013-04-19 13:43:00,57.7,27.3,30.23,SW,233,14.0,14.0,31,0.00,,---,0.00,VWS V14.01,2013-04-19 18:43:00,
2013-04-19 13:48:00,58.2,27.7,30.23,NW,316,6.0,11.0,31,0.00,,---,0.00,VWS V14.01,2013-04-19 18:48:00,
2013-04-19 13:53:00,58.6,29.6,30.23,NNW,328,5.0,10.0,33,0.00,,---,0.00,VWS V14.01,2013-04-19 18:53:00,
2013-04-19 13:59:00,58.9,28.3,30.23,North,5,4.0,14.0,31,0.00,,---,0.00,VWS V14.01,2013-04-19 18:59:00,
2013-04-19 14:04:00,59.0,27.6,30.22,NNW,335,6.0,14.0,30,0.00,,---,0.00,VWS V14.01,2013-04-19 19:04:00,
2013-04-19 14:09:00,59.3,28.7,30.22,WSW,254,6.0,19.0,31,0.00,,---,0.00,VWS V14.01,2013-04-19 19:09:00,
2013-04-19 14:14:00,59.5,28.1,30.22,West,274,3.0,8.0,30,0.00,,---,0.00,VWS V14.01,2013-04-19 19:14:00,
2013-04-19 14:19:00,59.8,27.5,30.22,WNW,286,5.0,13.0,29,0.00,,---,0.00,VWS V14.01,2013-04-19 19:19:00,
2013-04-19 14:24:00,60.0,26.8,30.22,NW,316,8.0,12.0,28,0.00,,---,0.00,VWS V14.01,2013-04-19 19:24:00,
2013-04-19 14:29:00,59.6,28.1,30.22,WNW,284,7.0,12.0,30,0.00,,---,0.00,VWS V14.01,2013-04-19 19:29:00,
2013-04-19 14:34:00,59.7,29.0,30.21,NW,325,5.0,11.0,31,0.00,,---,0.00,VWS V14.01,2013-04-19 19:34:00,
2013-04-19 14:39:00,60.3,27.9,30.21,West,269,9.0,10.0,29,0.00,,---,0.00,VWS V14.01,2013-04-19 19:39:00,
2013-04-19 14:44:00,60.6,31.4,30.21,West,263,10.0,10.0,33,0.00,,---,0.00,VWS V14.01,2013-04-19 19:44:00,
2013-04-19 14:49:00,60.6,27.3,30.21,WNW,299,11.0,20.0,28,0.00,,---,0.00,VWS V14.01,2013-04-19 19:49:00,
2013-04-19 14:54:00,60.7,27.4,30.21,NW,311,0.0,10.0,28,0.00,,---,0.00,VWS V14.01,2013-04-19 19:54:00,
2013-04-19 14:59:00,60.9,29.3,30.20,NNW,327,12.0,12.0,30,0.00,,---,0.00,VWS V14.01,2013-04-19 19:59:00,
2013-04-19 15:04:00,60.6,31.4,30.20,NNW,333,10.0,14.0,33,0.00,,---,0.00,VWS V14.01,2013-04-19 20:04:00,
2013-04-19 15:10:00,60.6,27.3,30.20,NW,312,5.0,14.0,28,0.00,,---,0.00,VWS V14.01,2013-04-19 20:10:00,
2013-04-19 15:15:00,60.8,26.6,30.19,West,278,13.0,14.0,27,0.00,,---,0.00,VWS V14.01,2013-04-19 20:15:00,
2013-04-19 15:20:00,60.7,27.4,30.20,NW,321,6.0,10.0,28,0.00,,---,0.00,VWS V14.01,2013-04-19 20:20:00,
2013-04-19 15:25:00,61.2,27.9,30.19,NNE,12,1.0,8.0,28,0.00,,---,0.00,VWS V14.01,2013-04-19 20:25:00,
2013-04-19 15:30:00,61.5,28.1,30.19,WSW,258,6.0,8.0,28,0.00,,---,0.00,VWS V14.01,2013-04-19 20:30:00,
2013-04-19 15:35:00,61.8,28.4,30.19,NW,316,10.0,15.0,28,0.00,,---,0.00,VWS V14.01,2013-04-19 20:35:00,
2013-04-19 15:40:00,62.1,26.8,30.19,NNW,333,5.0,10.0,26,0.00,,---,0.00,VWS V14.01,2013-04-19 20:40:00,
2013-04-19 15:45:00,62.0,29.4,30.18,NNW,328,7.0,9.0,29,0.00,,---,0.00,VWS V14.01,2013-04-19 20:45:00,
2013-04-19 15:50:00,61.5,29.8,30.18,NNE,15,6.0,11.0,30,0.00,,---,0.00,VWS V14.01,2013-04-19 20:50:00,
2013-04-19 15:55:00,61.2,27.0,30.18,NNE,13,9.0,11.0,27,0.00,,---,0.00,VWS V14.01,2013-04-19 20:55:00,
2013-04-19 16:00:00,61.1,29.5,30.17,NNW,332,5.0,8.0,30,0.00,,---,0.00,VWS V14.01,2013-04-19 21:00:00,
2013-04-19 16:05:00,60.1,28.6,30.17,NNE,29,4.0,9.0,30,0.00,,---,0.00,VWS V14.01,2013-04-19 21:05:00,
2013-04-19 16:10:00,60.3,27.1,30.17,North,9,9.0,12.0,28,0.00,,---,0.00,VWS V14.01,2013-04-19 21:10:00,
2013-04-19 16:15:00,60.7,29.9,30.17,WNW,290,0.0,4.0,31,0.00,,---,0.00,VWS V14.01,2013-04-19 21:15:00,
2013-04-19 16:20:00,61.1,28.6,30.17,NW,319,7.0,7.0,29,0.00,,---,0.00,VWS V14.01,2013-04-19 21:20:00,
2013-04-19 16:26:00,61.6,27.3,30.17,West,271,7.0,10.0,27,0.00,,---,0.00,VWS V14.01,2013-04-19 21:26:00,
2013-04-19 16:31:00,62.2,26.0,30.16,NW,326,0.0,7.0,25,0.00,,---,0.00,VWS V14.01,2013-04-19 21:31:00,
2013-04-19 16:36:00,62.4,28.0,30.16,NW,323,8.0,13.0,27,0.00,,---,0.00,VWS V14.01,2013-04-19 21:36:00,
2013-04-19 16:41:00,62.7,25.4,30.16,West,280,8.0,14.0,24,0.00,,---,0.00,VWS V14.01,2013-04-19 21:41:00,
2013-04-19 16:46:00,62.6,26.3,30.16,WNW,290,3.0,9.0,25,0.00,,---,0.00,VWS V14.01,2013-04-19 21:46:00,
2013-04-19 16:51:00,62.4,26.1,30.16,West,273,6.0,10.0,25,0.00,,---,0.00,VWS V14.01,2013-04-19 21:51:00,
2013-04-19 16:56:00,62.5,28.1,30.16,NNW,342,5.0,10.0,27,0.00,,---,0.00,VWS V14.01,2013-04-19 21:56:00,
2013-04-19 17:01:00,62.9,27.5,30.16,WNW,296,9.0,12.0,26,0.00,,---,0.00,VWS V14.01,2013-04-19 22:01:00,
2013-04-19 17:06:00,62.9,29.3,30.15,West,268,0.0,9.0,28,0.00,,---,0.00,VWS V14.01,2013-04-19 22:06:00,
2013-04-19 17:11:00,62.7,28.3,30.15,NNW,339,7.0,7.0,27,0.00,,---,0.00,VWS V14.01,2013-04-19 22:11:00,
2013-04-19 17:16:00,62.1,28.6,30.15,North,355,0.0,7.0,28,0.00,,---,0.00,VWS V14.01,2013-04-19 22:16:00,
2013-04-19 17:21:00,62.3,27.9,30.15,West,278,1.0,12.0,27,0.00,,---,0.00,VWS V14.01,2013-04-19 22:21:00,
2013-04-19 17:26:00,62.7,29.1,30.15,NNE,15,7.0,7.0,28,0.00,,---,0.00,VWS V14.01,2013-04-19 22:26:00,
2013-04-19 17:31:00,62.4,30.6,30.15,WNW,294,4.0,5.0,30,0.00,,---,0.00,VWS V14.01,2013-04-19 22:31:00,
2013-04-19 17:37:00,62.5,28.1,30.15,NNE,28,4.0,6.0,27,0.00,,---,0.00,VWS V14.01,2013-04-19 22:37:00,
2013-04-19 17:42:00,62.5,29.0,30.15,NW,324,0.0,5.0,28,0.00,,---,0.00,VWS V14.01,2013-04-19 22:42:00,
2013-04-19 17:47:00,62.6,29.9,30.15,NW,304,1.0,4.0,29,0.00,,---,0.00,VWS V14.01,2013-04-19 22:47:00,
2013-04-19 17:52:00,62.7,29.1,30.14,NNW,336,0.0,8.0,28,0.00,,---,0.00,VWS V14.01,2013-04-19 22:52:00,
2013-04-19 17:57:00,62.8,30.9,30.14,NW,325,6.0,6.0,30,0.00,,---,0.00,VWS V14.01,2013-04-19 22:57:00,
2013-04-19 18:02:00,62.3,30.5,30.14,North,360,3.0,6.0,30,0.00,,---,0.00,VWS V14.01,2013-04-19 23:02:00,
2013-04-19 18:07:00,61.7,30.0,30.14,NNE,23,3.0,4.0,30,0.00,,---,0.00,VWS V14.01,2013-04-19 23:07:00,
2013-04-19 18:12:00,61.8,30.1,30.14,NNW,333,1.0,4.0,30,0.00,,---,0.00,VWS V14.01,2013-04-19 23:12:00,
2013-04-19 18:17:00,62.2,28.7,30.14,WNW,294,8.0,10.0,28,0.00,,---,0.00,VWS V14.01,2013-04-19 23:17:00,
2013-04-19 18:22:00,62.4,28.0,30.14,NW,306,0.0,8.0,27,0.00,,---,0.00,VWS V14.01,2013-04-19 23:22:00,
2013-04-19 18:27:00,62.2,29.6,30.14,WNW,299,5.0,5.0,29,0.00,,---,0.00,VWS V14.01,2013-04-19 23:27:00,
2013-04-19 18:33:00,62.4,28.9,30.14,West,274,0.0,8.0,28,0.00,,---,0.00,VWS V14.01,2013-04-19 23:33:00,
2013-04-19 18:38:00,62.6,29.1,30.14,NW,307,3.0,7.0,28,0.00,,---,0.00,VWS V14.01,2013-04-19 23:38:00,
2013-04-19 18:43:00,62.5,29.8,30.14,WNW,286,0.0,7.0,29,0.00,,---,0.00,VWS V14.01,2013-04-19 23:43:00,
2013-04-19 18:48:00,62.4,29.8,30.13,NW,311,4.0,5.0,29,0.00,,---,0.00,VWS V14.01,2013-04-19 23:48:00,
2013-04-19 18:53:00,62.0,28.5,30.14,NW,305,0.0,3.0,28,0.00,,---,0.00,VWS V14.01,2013-04-19 23:53:00,
2013-04-19 18:58:00,61.8,29.2,30.14,West,280,0.0,3.0,29,0.00,,---,0.00,VWS V14.01,2013-04-19 23:58:00,
2013-04-19 19:03:00,61.6,29.1,30.13,West,281,1.0,2.0,29,0.00,,---,0.00,VWS V14.01,2013-04-20 00:03:00,
2013-04-19 19:08:00,61.3,30.4,30.14,West,281,0.0,3.0,31,0.00,,---,0.00,VWS V14.01,2013-04-20 00:08:00,
2013-04-19 19:13:00,61.0,29.4,30.13,WNW,300,0.0,4.0,30,0.00,,---,0.00,VWS V14.01,2013-04-20 00:13:00,
2013-04-19 19:18:00,60.8,30.0,30.14,WNW,303,0.0,1.0,31,0.00,,---,0.00,VWS V14.01,2013-04-20 00:18:00,
2013-04-19 19:23:00,60.6,30.6,30.13,WNW,300,0.0,2.0,32,0.00,,---,0.00,VWS V14.01,2013-04-20 00:23:00,
2013-04-19 19:28:00,60.4,30.4,30.13,NW,306,1.0,3.0,32,0.00,,---,0.00,VWS V14.01,2013-04-20 00:28:00,
2013-04-19 19:33:00,60.2,31.0,30.13,NW,306,0.0,0.0,33,0.00,,---,0.00,VWS V14.01,2013-04-20 00:33:00,
2013-04-19 19:39:00,59.8,30.7,30.13,NW,306,0.0,0.0,33,0.00,,---,0.00,VWS V14.01,2013-04-20 00:39:00,
2013-04-19 19:44:00,59.4,34.5,30.14,NW,306,0.0,0.0,39,0.00,,---,0.00,VWS V14.01,2013-04-20 00:44:00,
2013-04-19 19:49:00,58.8,34.5,30.13,NW,306,0.0,0.0,40,0.00,,---,0.00,VWS V14.01,2013-04-20 00:49:00,
2013-04-19 19:54:00,58.3,34.1,30.14,NW,306,0.0,0.0,40,0.00,,---,0.00,VWS V14.01,2013-04-20 00:54:00,
2013-04-19 19:59:00,57.3,36.2,30.14,NW,306,0.0,0.0,45,0.00,,---,0.00,VWS V14.01,2013-04-20 00:59:00,
2013-04-19 20:04:00,56.2,37.3,30.14,NW,306,0.0,0.0,49,0.00,,---,0.00,VWS V14.01,2013-04-20 01:04:00,
2013-04-19 20:09:00,55.1,38.3,30.14,NW,306,0.0,0.0,53,0.00,,---,0.00,VWS V14.01,2013-04-20 01:09:00,
2013-04-19 20:14:00,54.2,39.3,30.14,NW,306,0.0,0.0,57,0.00,,---,0.00,VWS V14.01,2013-04-20 01:14:00,
2013-04-19 20:19:00,53.4,38.6,30.14,NW,306,0.0,0.0,57,0.00,,---,0.00,VWS V14.01,2013-04-20 01:19:00,
2013-04-19 20:24:00,52.8,38.5,30.14,NW,306,0.0,0.0,58,0.00,,---,0.00,VWS V14.01,2013-04-20 01:24:00,
2013-04-19 20:29:00,52.3,38.0,30.14,NW,306,0.0,0.0,58,0.00,,---,0.00,VWS V14.01,2013-04-20 01:29:00,
2013-04-19 20:34:00,51.7,38.3,30.15,NW,306,0.0,0.0,60,0.00,,---,0.00,VWS V14.01,2013-04-20 01:34:00,
2013-04-19 20:39:00,50.9,39.2,30.15,NW,306,0.0,0.0,64,0.00,,---,0.00,VWS V14.01,2013-04-20 01:39:00,
2013-04-19 20:45:00,50.1,38.8,30.15,NW,306,0.0,0.0,65,0.00,,---,0.00,VWS V14.01,2013-04-20 01:45:00,
2013-04-19 20:50:00,49.6,39.5,30.15,NW,306,0.0,0.0,68,0.00,,---,0.00,VWS V14.01,2013-04-20 01:50:00,
2013-04-19 20:55:00,49.0,39.3,30.15,NW,306,0.0,0.0,69,0.00,,---,0.00,VWS V14.01,2013-04-20 01:55:00,
2013-04-19 21:00:00,48.5,39.5,30.15,NW,306,0.0,0.0,71,0.00,,---,0.00,VWS V14.01,2013-04-20 02:00:00,
2013-04-19 21:05:00,47.9,39.3,30.16,NW,306,0.0,0.0,72,0.00,,---,0.00,VWS V14.01,2013-04-20 02:05:00,
2013-04-19 21:10:00,47.5,39.3,30.16,NW,306,0.0,0.0,73,0.00,,---,0.00,VWS V14.01,2013-04-20 02:10:00,
2013-04-19 21:15:00,47.2,39.3,30.16,NW,306,0.0,0.0,74,0.00,,---,0.00,VWS V14.01,2013-04-20 02:15:00,
2013-04-19 21:20:00,46.8,39.7,30.16,NW,306,0.0,0.0,76,0.00,,---,0.00,VWS V14.01,2013-04-20 02:20:00,
2013-04-19 21:25:00,46.4,39.3,30.16,NW,306,0.0,0.0,76,0.00,,---,0.00,VWS V14.01,2013-04-20 02:25:00,
2013-04-19 21:30:00,45.9,39.1,30.16,NW,306,0.0,0.0,77,0.00,,---,0.00,VWS V14.01,2013-04-20 02:30:00,
2013-04-19 21:35:00,45.4,39.0,30.16,NW,306,0.0,0.0,78,0.00,,---,0.00,VWS V14.01,2013-04-20 02:35:00,
2013-04-19 21:41:00,45.1,39.3,30.16,NW,306,0.0,0.0,80,0.00,,---,0.00,VWS V14.01,2013-04-20 02:41:00,
2013-04-19 21:46:00,44.8,39.3,30.16,NW,306,0.0,0.0,81,0.00,,---,0.00,VWS V14.01,2013-04-20 02:46:00,
2013-04-19 21:51:00,44.5,39.0,30.16,NW,306,0.0,0.0,81,0.00,,---,0.00,VWS V14.01,2013-04-20 02:51:00,
2013-04-19 21:56:00,44.3,39.5,30.16,NW,306,0.0,0.0,83,0.00,,---,0.00,VWS V14.01,2013-04-20 02:56:00,
2013-04-19 22:01:00,44.3,39.5,30.16,NW,306,0.0,0.0,83,0.00,,---,0.00,VWS V14.01,2013-04-20 03:01:00,
2013-04-19 22:06:00,44.1,39.3,30.17,NW,306,0.0,0.0,83,0.00,,---,0.00,VWS V14.01,2013-04-20 03:06:00,
2013-04-19 22:11:00,43.8,39.0,30.17,NW,306,0.0,0.0,83,0.00,,---,0.00,VWS V14.01,2013-04-20 03:11:00,
2013-04-19 22:16:00,43.6,39.1,30.17,NW,306,0.0,0.0,84,0.00,,---,0.00,VWS V14.01,2013-04-20 03:16:00,
2013-04-19 22:21:00,43.4,39.2,30.17,NW,306,0.0,0.0,85,0.00,,---,0.00,VWS V14.01,2013-04-20 03:21:00,
2013-04-19 22:26:00,43.4,39.2,30.17,NW,306,0.0,0.0,85,0.00,,---,0.00,VWS V14.01,2013-04-20 03:26:00,
2013-04-19 22:31:00,44.2,38.1,30.17,NW,306,0.0,0.0,79,0.00,,---,0.00,VWS V14.01,2013-04-20 03:31:00,
2013-04-19 22:36:00,44.5,39.0,30.17,NW,306,0.0,0.0,81,0.00,,---,0.00,VWS V14.01,2013-04-20 03:36:00,
2013-04-19 22:41:00,44.7,37.6,30.17,West,275,0.0,0.0,76,0.00,,---,0.00,VWS V14.01,2013-04-20 03:41:00,
2013-04-19 22:47:00,46.2,37.0,30.17,West,272,0.0,0.0,70,0.00,,---,0.00,VWS V14.01,2013-04-20 03:47:00,
2013-04-19 22:52:00,46.8,38.3,30.17,West,272,0.0,0.0,72,0.00,,---,0.00,VWS V14.01,2013-04-20 03:52:00,
2013-04-19 22:57:00,46.5,37.6,30.17,West,272,0.0,0.0,71,0.00,,---,0.00,VWS V14.01,2013-04-20 03:57:00,
2013-04-19 23:01:00,46.3,37.8,30.17,West,272,0.0,0.0,72,0.00,,---,0.00,VWS V14.01,2013-04-20 04:01:00,
2013-04-19 23:07:00,46.2,38.0,30.17,West,272,0.0,0.0,73,0.00,,---,0.00,VWS V14.01,2013-04-20 04:07:00,
2013-04-19 23:12:00,45.9,38.1,30.17,West,272,0.0,0.0,74,0.00,,---,0.00,VWS V14.01,2013-04-20 04:12:00,
2013-04-19 23:17:00,45.8,37.0,30.17,West,268,0.0,0.0,71,0.00,,---,0.00,VWS V14.01,2013-04-20 04:17:00,
2013-04-19 23:22:00,46.0,37.5,30.17,West,268,0.0,0.0,72,0.00,,---,0.00,VWS V14.01,2013-04-20 04:22:00,
2013-04-19 23:27:00,45.7,37.9,30.18,West,268,0.0,0.0,74,0.00,,---,0.00,VWS V14.01,2013-04-20 04:27:00,
2013-04-19 23:32:00,45.0,37.2,30.18,West,268,0.0,0.0,74,0.00,,---,0.00,VWS V14.01,2013-04-20 04:32:00,
2013-04-19 23:37:00,44.4,37.3,30.18,West,268,0.0,0.0,76,0.00,,---,0.00,VWS V14.01,2013-04-20 04:37:00,
2013-04-19 23:42:00,44.1,37.7,30.18,West,268,0.0,0.0,78,0.00,,---,0.00,VWS V14.01,2013-04-20 04:42:00,
2013-04-19 23:47:00,44.0,37.3,30.18,West,268,0.0,0.0,77,0.00,,---,0.00,VWS V14.01,2013-04-20 04:47:00,
2013-04-19 23:52:00,43.9,36.8,30.18,SW,228,0.0,0.0,76,0.00,,---,0.00,VWS V14.01,2013-04-20 04:52:00,
2013-04-19 23:57:00,44.0,37.3,30.18,SW,217,0.0,0.0,77,0.00,,---,0.00,VWS V14.01,2013-04-20 04:57:00,